Regional Weather Roundup
Issued by NWS Sterling, VA

Home | Current Version | Previous Version | Graphics & Text | Print | Product List | Glossary On
Versions: 1 2 3 4 5 6 7 8 9 10 11 12 13 14 15 16 17 18 19 20 21 22 23 24 25 26 27 28 29 30 31 32 33 34 35 36 37 38 39 40 41 42 43 44 45 46 47 48 49 50
000
ASUS41 KLWX 051210
RWRLWX

REGIONAL WEATHER ROUNDUP
NATIONAL WEATHER SERVICE BALTIMORE MD/WASHINGTON DC
700 AM EST FRI FEB 05 2016

Note: "FAIR" indicates few or no clouds below 12,000 feet
with no significant weather and/or obstructions to visibility.
 TC=TEMPERATURE CELSIUS

 * =Non NWS site. Station does not report precipitation (e.g. rain,
    snow, etc.), thunder, or fog.

DCZ001-MDZ009-015-VAZ040>042-051-053>054-051300-
WASHINGTON METRO

CITY           SKY/WX    TMP DP  RH WIND       PRES   REMARKS
WASHINGTON NAT FLURRIES  37  29  72 NW18      30.16R WCI  27
DULLES         CLOUDY    36  23  59 NW17G25   30.16R WCI  26
ANDREWS AFB    CLOUDY    37  30  74 NW20G30   30.10R WCI  27
FT BELVOIR     LGT RAIN  37  27  66 NW17G26   30.15R WCI  27
QUANTICO       FLURRIES  39  26  59 N17G29    30.16R
COLLEGE PARK*  CLOUDY    37  32  81 NW13G18   30.13R
LEESBURG*      CLOUDY    36  28  75 NW15G22   30.18R WCI  26
MANASSAS*      CLOUDY    37  27  65 NW17G25   30.19R WCI  28
GAITHERSBURG*  CLOUDY    34  25  69 NW9G20    30.16S WCI  26

$$

MDZ006>007-011-014-051300-
BALTIMORE METRO

CITY           SKY/WX    TMP DP  RH WIND       PRES   REMARKS
BWI AIRPORT    CLOUDY    36  32  85 NW5       30.13R
MD SCIENCE CTR   N/A     39  30  70 MISG      30.14R
MARTIN STATE   CLOUDY    36  36 100 CALM      30.14S
ANNAPOLIS      CLOUDY    36  34  92 N7        30.11R
FORT MEADE*    CLOUDY    36  32  87 NW10      30.14R WCI  28

$$

MDZ012-015-019>023-051300-
MARYLAND EASTERN SHORE

CITY           SKY/WX    TMP DP  RH WIND       PRES   REMARKS
OCEAN CITY     LGT SNOW  33  32  96 N20G25    30.04R FOG     WCI  21
SALISBURY      LGT SNOW  33  32  96 N12G20    30.07R FOG     WCI  24
BAY BRIDGE AP*   N/A     36  34  93 N8        30.10S
CAMBRIDGE*     CLOUDY    32  32 100 N10G20    30.10  WCI  24
EASTON*        CLOUDY    34  34 100 N8        30.13R WCI  27

$$

MDZ017>025-051300-
SOUTHERN MARYLAND

CITY           SKY/WX    TMP DP  RH WIND       PRES   REMARKS
PATUXENT RIVER LGT SNOW  34  32  92 N14       30.12R FOG     WCI  25
ST INIGOES     MIX PCPN  35  33  92 N8G21     30.09F WCI  29
LEONARDTOWN*   CLOUDY    34  32  93 NW3       30.12R

$$

MDZ003>005-051300-
NORTH CENTRAL MARYLAND

CITY           SKY/WX    TMP DP  RH WIND       PRES   REMARKS
FREDERICK*     CLOUDY    37  30  75 NW12      30.18R
HAGERSTOWN APT CLOUDY    34  24  67 NW17      30.16S WCI  23
WESTMINSTER*   CLOUDY    36  32  87 NW7       30.10F

$$

MDZ501>502-051300-
WESTERN MARYLAND

CITY           SKY/WX    TMP DP  RH WIND       PRES   REMARKS
OAKLAND*       CLOUDY    19  16  86 NW7       30.13R FOG
CUMBERLAND*    CLOUDY    32  19  59 W13G21    30.28R WCI  22

$$

VAZ025>031-051300-
SHENANDOAH VALLEY

CITY           SKY/WX    TMP DP  RH WIND       PRES   REMARKS
WINCHESTER*    FAIR      34  21  60 NW18G29   30.16S WCI  23
FRONT ROYAL*   FAIR      32  21  64 NW12G23   30.16S WCI  23
LURAY*         CLOUDY    32  21  64 NW15G21   30.18R WCI  22
NEW MARKET*    CLOUDY    32  17  52 NW6       30.19S
STAUNTON*      FAIR      34  19  53 NW10G18   30.21R WCI  26
WAYNESBORO*    FAIR      29  14  52 NW9       30.17R WCI  21

$$

WVZ021-048>050-054>055-051300-
EASTERN WEST VIRGINIA PANHANDLE

CITY           SKY/WX    TMP DP  RH WIND       PRES   REMARKS
MARTINSBURG    FAIR      34  19  54 NW13G23   30.17S WCI  25
PETERSBURG*    CLOUDY    31  17  54 NW15      30.25R WCI  20

$$

VAZ036>039-050-051300-
CENTRAL FOOTHILLS

CITY           SKY/WX    TMP DP  RH WIND       PRES   REMARKS
CHARLOTTESVILL MOCLDY    36  18  48 N8G22     30.17R
CULPEPER*      MOCLDY    36  20  52 N13G20    30.17R WCI  27
ORANGE*        FAIR      37  25  60 NW10G16   30.17R
GORDONSVILLE*  FAIR      36  26  68 NW6       30.15R
WARRENTON*     CLOUDY    37  26  65 NW20G25   30.16R WCI  27

$$

VAZ055>057-051300-
NORTH AND CENTRAL PIEDMONT

CITY           SKY/WX    TMP DP  RH WIND       PRES   REMARKS
FREDERICKSBRG* CLOUDY    37  27  65 NW14G24   30.14S WCI  29
STAFFORD*      CLOUDY    36  26  65 NW16G22   30.18R WCI  26

$$

NCZ024-NYZ072-PAZ021-071-VAZ022-071-051300-
OTHER REGIONAL OBSERVATIONS

CITY           SKY/WX    TMP DP  RH WIND       PRES   REMARKS
NEW YORK CITY  SNOW      32  29  88 N10G17    30.11S VSB 1/2 WCI  24
PHILADELPHIA   LGT SNOW N/A N/A N/A N17       30.13R FOG
PITTSBURGH     FLURRIES  26  19  74 NW16      30.28R WCI  14
ROANOKE        MOCLDY    31  16  54 NW13      30.25R WCI  21
RICHMOND       CLOUDY    35  31  85 N13       30.16R WCI  26
RALEIGH        CLOUDY    37  31  78 NW6       30.19R

$$

ANZ530>537-051300-
MARINE OBSERVATIONS

STATION/POSITION TIME  TEMP    WIND        PRES
                       AIR SEA DIR/SP/G
                 (UTC) (F)     (DEG/KT/KT) (MB)
THOMAS PT LIGHT  NOT AVBL
BALT KEY BRIDGE  1100   36     330/ 10/ 12 1019.3R
COVE POINT       1100   35     360/ 25/ 31 1019.5R
LEWISETTA        1100   35 44  350/ 16/ 27 1018.7R
SOLOMONS ISLAND  1100   34 42  340/  8/ 13   N/A

$$




USA.gov is the U.S. government's official web portal to all federal, state and local government web resources and services.